User: anonymous   Login
Location: Unspecified
(0.0000°N, 0.0000°E)
Time: 22:18:51
(UTC+00:00)
Language:

USA 97 - Orbit

View from above orbital plane
View from above orbital plane
View from above satellite
View from above satellite

Ground track
Ground track

The orbit data is extracted from the following two-line orbital elements,

1 22915U 93074A   19133.66098822 0.00000000  00000-0  00000-0 0    03
2 22915  11.3966  32.7089 0009494 303.2371  56.6839  0.98528865    09
Epoch (UTC): 13 May 2019 15:51:49
Eccentricity: 0.0009494
inclination: 11.3966°
perigee height: 36241 km
apogee height: 36322 km
right ascension of ascending node: 32.7089°
argument of perigee: 303.2371°
revolutions per day: 0.98528865
mean anomaly at epoch: 56.6839°
orbit number at epoch: 0

The dashed part of the orbit path shows where the satellite is in the earth's shadow,  

DLR